Location: Unspecified
(0.0000°N, 0.0000°E)
Time: 16:12:20
(UTC+00:00)

Vanguard 1 Rocket - Pass Details

Date: 15 December 2017
Orbit: 654 x 4223 km, 34.3° (Epoch: 21 April)

Event Time Altitude Azimuth Distance (km) Brightness Sun altitude
Rises 22:50:49 0° 315° (NW) 7,244 11.9 -61.9°
Reaches altitude 10° 22:55:19 10° 319° (NW) 6,575 11.6 -62.5°
Enters shadow 22:55:25 10° 319° (NW) 6,560 11.6 -62.5°
Exits shadow 23:36:04 27° 107° (ESE) 5,578 11.2 -66.2°
Drops below altitude 10° 23:42:45 10° 114° (ESE) 6,480 11.7 -66.5°
Sets 23:47:02 0° 117° (ESE) 7,149 12.1 -66.6°
